• In Czech Republic
  • List of Countries
  • For 7 days
  • Water Temperature
  • Satellite Maps
  • Weather Map
  • Weather Widgets
  • user-avatar
    Login

    Hourly Weather Akkol'

    Today, 23 September, Sunday

    Time Temperature Precipitation Wind Pressure Humidity
    00:00 +9°C° 0.4 mm 5 mps 725 mmHg 90%
    01:00 +9°C° 0.4 mm 5 mps 725 mmHg 91%
    02:00 +9°C° 0.4 mm 5 mps 725 mmHg 92%
    03:00 +10°C° 1.1 mm 4 mps 725 mmHg 93%
    04:00 +10°C° 1.1 mm 4 mps 725 mmHg 93%
    05:00 +10°C° 0 mm 4 mps 724 mmHg 92%
    06:00 +10°C° 0.2 mm 4 mps 725 mmHg 90%
    07:00 +9°C° 0.2 mm 5 mps 725 mmHg 89%
    08:00 +9°C° 0.2 mm 5 mps 725 mmHg 87%
    09:00 +10°C° 0.1 mm 5 mps 725 mmHg 83%
    10:00 +10°C° 0.1 mm 5 mps 726 mmHg 78%
    11:00 +12°C° 0.1 mm 5 mps 726 mmHg 74%
    12:00 +12°C° 0.2 mm 5 mps 726 mmHg 72%
    13:00 +12°C° 0.2 mm 5 mps 726 mmHg 71%
    14:00 +12°C° 0.2 mm 5 mps 726 mmHg 69%
    15:00 +12°C° 0.1 mm 5 mps 727 mmHg 70%
    16:00 +12°C° 0.1 mm 5 mps 727 mmHg 71%
    17:00 +10°C° 0.1 mm 5 mps 727 mmHg 73%
    18:00 +10°C° 0 mm 4 mps 728 mmHg 78%
    19:00 +8°C° 0 mm 4 mps 728 mmHg 83%
    20:00 +8°C° 0 mm 3 mps 728 mmHg 88%
    21:00 +8°C° 0 mm 3 mps 729 mmHg 89%
    22:00 +7°C° 0 mm 3 mps 729 mmHg 91%
    23:00 +7°C° 0 mm 3 mps 729 mmHg 93%

    Tomorrow, 24 September, Monday

    Time Temperature Precipitation Wind Pressure Humidity
    00:00 +7°C° 0 mm 2 mps 729 mmHg 94%
    01:00 +6°C° 0 mm 2 mps 729 mmHg 95%
    02:00 +6°C° 0 mm 2 mps 730 mmHg 95%
    03:00 +6°C° 0 mm 2 mps 730 mmHg 95%
    04:00 +5°C° 0 mm 2 mps 730 mmHg 95%
    05:00 +5°C° 0 mm 2 mps 730 mmHg 95%
    06:00 +6°C° 0 mm 2 mps 731 mmHg 92%
    07:00 +6°C° 0 mm 2 mps 731 mmHg 90%
    08:00 +7°C° 0 mm 2 mps 731 mmHg 87%
    09:00 +8°C° 0 mm 2 mps 732 mmHg 81%
    10:00 +9°C° 0 mm 2 mps 732 mmHg 75%
    11:00 +10°C° 0 mm 2 mps 732 mmHg 69%
    12:00 +12°C° 0 mm 2 mps 732 mmHg 66%
    13:00 +12°C° 0 mm 3 mps 732 mmHg 62%
    14:00 +13°C° 0 mm 3 mps 732 mmHg 59%
    15:00 +14°C° 0 mm 2 mps 732 mmHg 59%
    16:00 +14°C° 0 mm 2 mps 732 mmHg 58%
    17:00 +15°C° 0 mm 2 mps 732 mmHg 58%
    18:00 +14°C° 0 mm 2 mps 732 mmHg 63%
    19:00 +13°C° 0 mm 2 mps 733 mmHg 67%
    20:00 +10°C° 0 mm 2 mps 733 mmHg 71%
    21:00 +10°C° 0 mm 2 mps 733 mmHg 73%
    22:00 +10°C° 0 mm 2 mps 733 mmHg 75%
    23:00 +10°C° 0 mm 2 mps 733 mmHg 76%

    Day after tomorrow, 25 September, Tuesday

    Time Temperature Precipitation Wind Pressure Humidity
    00:00 +9°C° 0 mm 2 mps 733 mmHg 77%
    01:00 +9°C° 0 mm 2 mps 733 mmHg 78%
    02:00 +9°C° 0 mm 2 mps 733 mmHg 79%
    03:00 +9°C° 0 mm 2 mps 734 mmHg 80%
    04:00 +9°C° 0 mm 3 mps 734 mmHg 80%
    05:00 +8°C° 0 mm 3 mps 734 mmHg 80%
    06:00 +9°C° 0 mm 3 mps 734 mmHg 77%
    07:00 +10°C° 0 mm 3 mps 734 mmHg 73%
    08:00 +11°C° 0 mm 3 mps 735 mmHg 70%
    09:00 +13°C° 0 mm 3 mps 735 mmHg 64%
    10:00 +14°C° 0 mm 4 mps 735 mmHg 57%
    11:00 +17°C° 0 mm 4 mps 735 mmHg 51%
    12:00 +18°C° 0 mm 4 mps 735 mmHg 48%
    13:00 +19°C° 0 mm 4 mps 735 mmHg 45%
    14:00 +19°C° 0 mm 4 mps 735 mmHg 42%
    15:00 +19°C° 0 mm 4 mps 735 mmHg 44%
    16:00 +19°C° 0 mm 3 mps 735 mmHg 46%
    17:00 +18°C° 0 mm 3 mps 735 mmHg 48%
    18:00 +17°C° 0 mm 2 mps 735 mmHg 51%
    19:00 +16°C° 0 mm 2 mps 735 mmHg 54%
    20:00 +15°C° 0 mm 2 mps 736 mmHg 56%
    21:00 +14°C° 0 mm 2 mps 736 mmHg 57%
    22:00 +14°C° 0 mm 2 mps 736 mmHg 58%
    23:00 +13°C° 0 mm 2 mps 736 mmHg 59%

    26 September, Wednesday

    Time Temperature Precipitation Wind Pressure Humidity
    00:00 +13°C° 0 mm 2 mps 736 mmHg 60%
    01:00 +13°C° 0 mm 2 mps 736 mmHg 61%
    02:00 +12°C° 0 mm 2 mps 736 mmHg 62%
    03:00 +12°C° 0 mm 2 mps 736 mmHg 63%
    04:00 +12°C° 0 mm 2 mps 736 mmHg 63%
    05:00 +10°C° 0 mm 2 mps 736 mmHg 64%
    06:00 +12°C° 0 mm 2 mps 736 mmHg 63%
    07:00 +13°C° 0 mm 2 mps 736 mmHg 61%
    08:00 +14°C° 0 mm 2 mps 737 mmHg 60%
    09:00 +15°C° 0 mm 2 mps 737 mmHg 54%
    10:00 +17°C° 0 mm 3 mps 737 mmHg 49%
    11:00 +19°C° 0 mm 3 mps 737 mmHg 44%
    12:00 +20°C° 0 mm 3 mps 737 mmHg 42%
    13:00 +21°C° 0 mm 3 mps 737 mmHg 40%
    14:00 +21°C° 0 mm 3 mps 737 mmHg 38%
    15:00 +21°C° 0 mm 2 mps 737 mmHg 40%
    16:00 +20°C° 0 mm 2 mps 736 mmHg 42%
    17:00 +21°C° 0 mm 1 mps 736 mmHg 45%
    18:00 +20°C° 0 mm 1 mps 736 mmHg 48%
    19:00 +18°C° 0 mm 1 mps 736 mmHg 50%
    20:00 +16°C° 0 mm 1 mps 736 mmHg 53%
    21:00 +16°C° 0 mm 1 mps 736 mmHg 54%
    22:00 +15°C° 0 mm 1 mps 736 mmHg 56%
    23:00 +15°C° 0 mm 1 mps 736 mmHg 57%

    27 September, Thursday

    Time Temperature Precipitation Wind Pressure Humidity
    00:00 +15°C° 0 mm 1 mps 736 mmHg 58%
    01:00 +14°C° 0 mm 1 mps 736 mmHg 59%
    02:00 +14°C° 0 mm 2 mps 736 mmHg 61%
    03:00 +14°C° 0 mm 2 mps 736 mmHg 62%
    04:00 +13°C° 0 mm 2 mps 736 mmHg 63%
    05:00 +13°C° 0 mm 2 mps 736 mmHg 64%
    06:00 +14°C° 0 mm 2 mps 736 mmHg 63%
    07:00 +14°C° 0 mm 2 mps 736 mmHg 61%
    08:00 +15°C° 0 mm 2 mps 736 mmHg 60%
    09:00 +17°C° 0 mm 2 mps 737 mmHg 54%
    10:00 +19°C° 0 mm 2 mps 737 mmHg 49%
    11:00 +20°C° 0 mm 2 mps 737 mmHg 43%
    12:00 +21°C° 0 mm 2 mps 736 mmHg 41%
    13:00 +23°C° 0 mm 2 mps 736 mmHg 39%
    14:00 +23°C° 0 mm 2 mps 736 mmHg 37%
    15:00 +23°C° 0 mm 2 mps 736 mmHg 39%
    16:00 +23°C° 0 mm 2 mps 736 mmHg 41%
    17:00 +21°C° 0 mm 2 mps 735 mmHg 43%
    18:00 +20°C° 0 mm 2 mps 735 mmHg 46%
    19:00 +18°C° 0 mm 2 mps 735 mmHg 50%
    20:00 +17°C° 0 mm 3 mps 735 mmHg 53%
    21:00 +16°C° 0 mm 3 mps 735 mmHg 54%
    22:00 +16°C° 0 mm 3 mps 734 mmHg 56%
    23:00 +14°C° 0 mm 3 mps 734 mmHg 57%

    28 September, Friday

    Time Temperature Precipitation Wind Pressure Humidity
    00:00 +13°C° 0 mm 3 mps 734 mmHg 58%
    01:00 +13°C° 0 mm 3 mps 734 mmHg 58%
    02:00 +12°C° 0 mm 3 mps 733 mmHg 59%
    03:00 +12°C° 0 mm 3 mps 733 mmHg 61%
    04:00 +12°C° 0 mm 3 mps 733 mmHg 62%
    05:00 +11°C° 0 mm 3 mps 733 mmHg 64%
    06:00 +12°C° 0 mm 3 mps 733 mmHg 64%
    07:00 +13°C° 0 mm 4 mps 732 mmHg 65%
    08:00 +13°C° 0 mm 4 mps 732 mmHg 66%
    09:00 +15°C° 0 mm 5 mps 732 mmHg 62%
    10:00 +17°C° 0 mm 5 mps 732 mmHg 58%
    11:00 +20°C° 0 mm 5 mps 731 mmHg 54%
    12:00 +20°C° 0 mm 5 mps 731 mmHg 50%
    13:00 +21°C° 0 mm 5 mps 730 mmHg 46%
    14:00 +22°C° 0 mm 5 mps 730 mmHg 42%
    15:00 +22°C° 0 mm 4 mps 730 mmHg 44%
    16:00 +21°C° 0 mm 4 mps 730 mmHg 45%
    17:00 +21°C° 0 mm 3 mps 729 mmHg 47%
    18:00 +20°C° 0 mm 3 mps 729 mmHg 50%
    19:00 +18°C° 0 mm 3 mps 729 mmHg 52%
    20:00 +17°C° 0 mm 3 mps 729 mmHg 55%
    21:00 +17°C° 0 mm 3 mps 729 mmHg 56%
    22:00 +15°C° 0 mm 4 mps 728 mmHg 56%
    23:00 +15°C° 0 mm 4 mps 728 mmHg 57%
    Show more